Location: Invercargill
(46.4000°S, 168.3500°E)
Time: 04:20:41
(UTC+13:00)

ISS - Pass Details

Date: 01 February 2019
Orbit: 403 x 411 km, 51.6° (Epoch: 20 February)

Event Time Altitude Azimuth Distance (km) Brightness Sun altitude
Exits shadow 05:20:13 19° 333° (NNW) 1,076 -2.3 -11.9°
Maximum altitude 05:22:17 41° 36° (NE) 620 -3.0 -11.7°
Drops below altitude 10° 05:25:28 10° 107° (ESE) 1,499 0.2 -11.3°
Sets 05:27:38 0° 114° (ESE) 2,365 1.7 -11.0°
